[[{"header":{"parameterUnit":"m.s-1","parameterCategory":1,"la1":30.2991,"la2":30.254,"lo1":-89.0895,"lo2":-89.0444,"dy":0.0017,"dx":0.0017,"nx":28,"ny":28,"refTime":"2023-10-13T21:00:00:Z","depth":0,"parameterNumber":2,"parameterNumberName":"U-component_of_WINDS"},"data":[0,0,0,0,0,0,0,0,0,0,0,0,0,0,0,0,0,0,0,0,0,0,0,0,0,0,0,0,0,0,0,0,0,0,0,0,0,0,0,0,0,0,0,0,0,0,0,0,0,0,0,0,0,0,0,0,0,0,3.9216,3.9216,0,3.9227,3.9227,3.9227,3.9188,3.9187,3.9186,3.9185,3.9196,3.9197,3.9198,0,0,0,0,0,0,0,0,0,0,0,0,0,3.9162,3.9163,3.9216,3.9216,3.9216,3.9227,3.9227,3.9227,3.9189,3.9187,3.9186,3.9184,3.9195,3.9197,3.9199,0,0,0,0,0,0,0,0,0,0,0,0,0,3.918,3.9164,3.9215,3.9198,3.9197,3.9227,3.9227,3.9227,3.9189,3.9187,3.9185,3.9184,3.9195,3.9197,3.9199,3.9246,0,0,3.9205,3.9206,0,0,0,0,0,0,0,0,3.9179,3.9182,3.92,3.9199,3.9198,3.9204,3.9212,3.9233,3.9189,3.9192,3.9185,3.9183,3.92,3.9201,3.9207,3.9247,3.9247,3.9205,3.9206,3.9207,3.9208,0,0,0,0,0,0,0,3.9178,3.9182,3.922,3.9201,3.9199,3.919,3.9191,3.9216,3.9205,3.9191,3.9189,3.9191,3.9199,3.9205,3.9207,3.9247,3.9205,3.9207,3.9208,3.9209,3.9328,3.933,0,0,0,0,0,0,3.9179,3.9181,3.922,3.922,3.9184,3.9192,3.9193,3.9204,3.9205,3.9204,3.9192,3.9189,3.9203,3.9205,3.9208,3.9264,3.9207,3.9209,3.921,3.9326,3.9328,3.933,0,0,0,0,0,0,3.9178,3.9183,3.9219,3.92,3.9204,3.9195,3.9208,3.9205,3.9212,3.9206,3.9203,3.9201,3.9202,3.9205,3.9237,3.9264,3.921,3.9212,3.9324,3.9327,3.9329,3.9377,0,0,0,0,0,0,3.9177,3.9183,3.92,3.9201,3.9205,3.9248,3.9209,3.9207,3.9215,3.9211,3.9213,3.9212,3.92,3.9234,3.9239,3.9266,3.9214,3.9321,3.9325,3.9329,3.9373,3.9381,3.9388,0,0,0,0,0,3.9175,3.9213,3.9201,3.9206,3.9227,3.925,3.9252,3.9239,3.9218,3.9235,3.9232,3.9212,3.926,3.9238,3.9243,3.9271,3.932,3.9324,3.9328,3.9369,3.9379,3.9388,0,0,0,0,0,0,3.9215,3.9212,3.92,3.9238,3.9245,3.9243,3.9265,3.925,3.9262,3.9257,3.924,3.9241,3.9277,3.9277,3.9252,3.9318,3.9286,3.9292,3.9316,3.9325,3.9333,3.9332,3.9215,0,0,0,0,0,3.9228,3.9247,3.9244,3.9279,3.9283,3.9274,3.9283,3.9273,3.9278,3.9281,3.9279,3.9286,3.9303,3.9314,3.9329,3.9373,3.9374,3.9395,3.9402,3.9409,3.9413,3.9438,3.9448,3.9345,3.9345,3.9345,0,0,3.9255,3.9257,3.927,3.9287,3.929,3.9311,3.9276,3.9299,3.9314,3.9284,3.9315,3.9315,3.9321,3.936,3.9377,3.9361,3.9442,3.9414,3.9419,3.9421,3.9444,3.9453,3.9462,3.9348,3.9347,3.9347,0,0,3.9316,3.9319,3.9349,3.9354,3.936,3.9354,3.9362,3.9363,3.9362,3.9393,3.9372,3.939,3.9419,3.9425,3.9432,3.9498,3.948,3.9503,3.9542,3.9567,3.9575,3.9582,3.9606,3.9615,3.9508,3.9508,3.9509,0,3.9349,3.938,3.9366,3.9391,3.94,3.9375,3.9405,3.9411,3.9422,3.9429,3.9411,3.9448,3.9451,3.9491,3.9508,3.9514,3.9522,3.9502,3.9575,3.9582,3.9588,3.9611,3.962,3.9511,3.9511,3.9511,3.951,0,3.9421,3.9442,3.9466,3.9478,3.949,3.9517,3.9508,3.9522,3.9511,3.9507,3.954,3.9543,3.9558,3.9567,3.9556,3.9607,3.9597,3.9578,3.9546,3.9601,3.9622,3.9631,3.9515,3.9514,3.9513,3.9513,0,0,3.9504,3.9511,3.952,3.9526,3.9533,3.9549,3.9577,3.9593,3.9605,3.9614,3.9637,3.9664,3.9646,3.9654,3.9644,3.9666,3.9719,3.9643,3.9643,3.9658,3.9776,3.9791,3.9801,3.9708,3.9709,3.9711,3.9776,0,3.9565,3.9612,3.9601,3.9648,3.9668,3.9646,3.967,3.9677,3.9675,3.9693,3.969,3.971,3.9685,3.969,3.971,3.9708,3.9743,3.9703,3.9729,3.973,3.9728,3.9812,3.9827,3.9888,3.9784,3.9785,3.9786,0,3.964,3.9654,3.9703,3.9708,3.9716,3.9738,3.9753,3.977,3.9778,3.9776,3.9786,3.9772,3.98,3.9769,3.9808,3.9781,3.9792,3.9793,3.9795,3.9796,3.9761,3.9816,3.9907,3.9917,3.9799,3.9798,3.9797,0,3.9698,3.9728,3.9761,3.9767,3.9774,3.979,3.9794,3.9801,3.9812,3.9825,3.9833,3.9849,3.9858,3.9871,3.9863,3.9841,3.9904,3.9871,3.9902,3.9903,3.9915,3.9915,4.001,3.9923,3.9923,3.9922,3.9922,0,3.9766,3.9796,3.9787,3.9808,3.9842,3.9831,3.9865,3.9866,3.9873,3.9894,3.9876,3.9896,3.9884,3.9903,3.9897,3.993,3.9934,3.9933,3.9931,3.9935,3.9935,3.9941,3.9936,3.9925,3.9924,3.9924,3.9923,0,3.9835,3.983,3.9865,3.987,3.9871,3.9897,3.9901,3.992,3.9918,3.9945,3.995,3.9947,3.9969,3.9962,3.9985,3.9981,4.0024,4.0016,4.0021,4.0019,4.0051,4.0048,4.0153,4.0166,4.007,4.0071,4.0072,0,3.9878,3.9902,3.9909,3.9922,3.9928,3.9949,3.9961,3.9951,3.9964,3.9977,3.9995,4.0016,4.0031,4.0068,4.0067,4.0086,4.0078,4.0114,4.0081,4.0084,4.0079,4.0078,4.0081,4.012,4.0121,4.0122,4.0123,0,3.9956,3.9953,3.9971,3.9989,4.0004,4.0018,4.0029,4.0041,4.0032,4.0048,4.0071,4.0083,4.0108,4.0129,4.0147,4.015,4.0136,4.0134,4.0142,4.0145,4.0147,4.0147,4.0039,4.0131,4.013,4.013,4.0129,4.0129,4.0014,4.0034,4.0044,4.0065,4.0073,4.0085,4.0104,4.0105,4.0124,4.0144,4.0137,4.0164,4.0173,4.0195,4.0201,4.0222,4.0208,4.022,4.0223,4.0226,4.023,4.0145,4.0225,4.0225,4.0225,4.0224,4.0224,0,4.0091,4.0097,4.0117,4.0135,4.0152,4.0137,4.015,4.0165,4.0189,4.0199,4.0216,4.0243,4.0264,4.0266,4.0286,4.0302,4.0296,4.0308,4.0306,4.0307,4.0241,4.0232,4.0312,4.0312,4.0312,4.0312,4.0312,4.0312,4.0134,4.0168,4.0167,4.0206,4.0211,4.0237,4.0246,4.0257,4.0266,4.0297,4.0314,4.0316,4.0323,4.0344,4.0363,4.0363,4.0371,4.0385,4.0383,4.0321,4.0312,4.0304,4.0295,4.0387,4.0387,4.0448,4.0448,4.0449]},{"header":{"parameterUnit":"m.s-1","parameterCategory":1,"la1":30.2991,"la2":30.254,"lo1":-89.0895,"lo2":-89.0444,"dy":0.0017,"dx":0.0017,"nx":28,"ny":28,"refTime":"2023-10-13T21:00:00:Z","depth":0,"parameterNumber":3,"parameterNumberName":"V-component_of_WINDS"},"data":[0,0,0,0,0,0,0,0,0,0,0,0,0,0,0,0,0,0,0,0,0,0,0,0,0,0,0,0,0,0,0,0,0,0,0,0,0,0,0,0,0,0,0,0,0,0,0,0,0,0,0,0,0,0,0,0,0,0,-6.9139,-6.914,0,-6.9233,-6.9234,-6.9235,-6.9216,-6.9214,-6.9213,-6.9211,-6.9302,-6.9306,-6.931,0,0,0,0,0,0,0,0,0,0,0,0,0,-6.894,-6.8943,-6.9139,-6.914,-6.9142,-6.9233,-6.9234,-6.9236,-6.9216,-6.9214,-6.9212,-6.921,-6.9301,-6.9306,-6.931,0,0,0,0,0,0,0,0,0,0,0,0,0,-6.9029,-6.8945,-6.9139,-6.9143,-6.9144,-6.9233,-6.9234,-6.9236,-6.9217,-6.9214,-6.9212,-6.9209,-6.9299,-6.9305,-6.9311,-6.94,0,0,-6.9329,-6.9332,0,0,0,0,0,0,0,0,-6.9024,-6.9036,-6.9141,-6.9143,-6.9145,-6.9211,-6.9197,-6.9291,-6.9218,-6.9189,-6.9211,-6.9208,-6.9273,-6.9281,-6.9304,-6.9404,-6.9408,-6.933,-6.9334,-6.9336,-6.9338,0,0,0,0,0,0,0,-6.9018,-6.9032,-6.9176,-6.9143,-6.9145,-6.9139,-6.9149,-6.9215,-6.9244,-6.9191,-6.919,-6.9202,-6.9274,-6.9299,-6.9306,-6.9409,-6.933,-6.9335,-6.9339,-6.9341,-6.9587,-6.959,0,0,0,0,0,0,-6.9011,-6.9027,-6.9173,-6.9179,-6.9077,-6.9145,-6.9156,-6.9192,-6.9244,-6.9249,-6.9204,-6.9201,-6.929,-6.9299,-6.931,-6.9418,-6.9336,-6.9342,-6.9345,-6.9585,-6.9588,-6.9591,0,0,0,0,0,0,-6.9007,-6.9024,-6.9169,-6.9103,-6.9121,-6.9151,-6.9192,-6.9195,-6.922,-6.9253,-6.9258,-6.9225,-6.9288,-6.9301,-6.9378,-6.942,-6.9345,-6.935,-6.9581,-6.9586,-6.959,-6.9634,0,0,0,0,0,0,-6.9001,-6.9023,-6.9057,-6.9104,-6.9125,-6.9238,-6.9194,-6.9199,-6.9231,-6.9228,-6.9274,-6.9279,-6.9287,-6.9369,-6.9384,-6.9427,-6.9355,-6.9577,-6.9583,-6.9588,-6.9629,-6.9639,-6.9648,0,0,0,0,0,-6.8994,-6.9064,-6.9059,-6.9077,-6.9169,-6.924,-6.9252,-6.9261,-6.9235,-6.9269,-6.9291,-6.9277,-6.9414,-6.9377,-6.9394,-6.944,-6.9575,-6.9581,-6.9588,-6.9624,-6.9637,-6.9648,0,0,0,0,0,0,-6.9019,-6.907,-6.9065,-6.9153,-6.9193,-6.9237,-6.9281,-6.9274,-6.9321,-6.9316,-6.9324,-6.9335,-6.9413,-6.9434,-6.9393,-6.9529,-6.949,-6.95,-6.9512,-6.9525,-6.9534,-6.9527,-6.936,0,0,0,0,0,-6.9036,-6.9091,-6.9132,-6.9205,-6.9226,-6.925,-6.9281,-6.9286,-6.9326,-6.9342,-6.9369,-6.9408,-6.946,-6.9493,-6.9543,-6.9632,-6.9642,-6.9672,-6.9681,-6.9689,-6.9698,-6.9748,-6.9762,-6.9613,-6.9613,-6.9613,0,0,-6.9069,-6.9104,-6.9137,-6.9211,-6.9243,-6.9299,-6.9264,-6.9324,-6.9365,-6.9351,-6.9426,-6.9448,-6.9491,-6.9575,-6.9613,-6.9595,-6.9741,-6.9698,-6.9704,-6.9708,-6.9756,-6.977,-6.9782,-6.9617,-6.9617,-6.9616,0,0,-6.9158,-6.919,-6.9256,-6.9289,-6.9337,-6.9353,-6.9369,-6.9415,-6.943,-6.9506,-6.9496,-6.9545,-6.9634,-6.9666,-6.9694,-6.9798,-6.9787,-6.9814,-6.9864,-6.9913,-6.9924,-6.9935,-6.9972,-6.9986,-6.9822,-6.9822,-6.9822,0,-6.9193,-6.9278,-6.929,-6.9352,-6.9385,-6.9377,-6.9443,-6.9474,-6.9535,-6.9558,-6.9537,-6.965,-6.9678,-6.977,-6.9796,-6.9819,-6.9837,-6.9808,-6.9922,-6.9933,-6.9943,-6.9978,-6.9993,-6.9825,-6.9825,-6.9825,-6.9824,0,-6.9319,-6.9378,-6.9425,-6.9488,-6.9526,-6.9589,-6.961,-6.9647,-6.9649,-6.9667,-6.9745,-6.978,-6.9837,-6.9859,-6.986,-6.9952,-6.9939,-6.992,-6.9881,-6.9959,-6.9993,-7.0007,-6.9829,-6.9828,-6.9828,-6.9827,0,0,-6.9425,-6.9495,-6.9512,-6.9541,-6.9595,-6.9641,-6.9704,-6.9763,-6.9794,-6.9837,-6.9891,-6.9967,-6.9951,-6.9983,-6.9988,-7.003,-7.0112,-7.0006,-7.0007,-7.0025,-7.0216,-7.0229,-7.0245,-7.0106,-7.0108,-7.011,-7.0212,0,-6.9519,-6.9634,-6.9647,-6.9748,-6.9803,-6.9798,-6.9853,-6.9892,-6.9911,-6.996,-6.998,-7.0035,-7.0009,-7.0029,-7.0071,-7.0093,-7.015,-7.0086,-7.0154,-7.0157,-7.0143,-7.0263,-7.0277,-7.0371,-7.0225,-7.0228,-7.0229,0,-6.9644,-6.9694,-6.9802,-6.985,-6.9874,-6.9924,-6.9979,-7.0026,-7.007,-7.0081,-7.0118,-7.0118,-7.0183,-7.0143,-7.0232,-7.0189,-7.0217,-7.0233,-7.0237,-7.0243,-7.0197,-7.0272,-7.0402,-7.0416,-7.025,-7.0248,-7.0247,0,-6.9712,-6.9805,-6.9882,-6.9907,-6.9965,-7.0001,-7.0026,-7.0068,-7.0103,-7.0151,-7.0173,-7.0227,-7.0256,-7.0298,-7.0312,-7.0282,-7.0402,-7.0362,-7.0412,-7.0412,-7.0436,-7.0435,-7.0572,-7.0456,-7.0455,-7.0455,-7.0455,0,-6.9816,-6.9881,-6.9913,-6.996,-7.0034,-7.0049,-7.0121,-7.0145,-7.0183,-7.0234,-7.0232,-7.028,-7.0296,-7.0347,-7.0358,-7.0431,-7.0444,-7.0454,-7.0456,-7.0454,-7.0453,-7.0473,-7.0467,-7.0459,-7.0458,-7.0457,-7.0457,0,-6.9902,-6.9927,-7.001,-7.006,-7.0074,-7.0126,-7.0168,-7.0213,-7.0233,-7.0298,-7.0314,-7.0344,-7.0403,-7.0422,-7.0493,-7.0501,-7.0586,-7.0582,-7.0572,-7.0572,-7.0621,-7.0616,-7.0776,-7.0797,-7.0667,-7.0668,-7.0669,0,-6.9967,-7.0018,-7.0075,-7.011,-7.0138,-7.0194,-7.023,-7.0247,-7.0285,-7.034,-7.0379,-7.0438,-7.0487,-7.0582,-7.0609,-7.0664,-7.0661,-7.0713,-7.0669,-7.0666,-7.0662,-7.0659,-7.0664,-7.0721,-7.0723,-7.0724,-7.0725,0,-7.008,-7.009,-7.0143,-7.0201,-7.0245,-7.0291,-7.0335,-7.0364,-7.0387,-7.0429,-7.0492,-7.0529,-7.0604,-7.0662,-7.0719,-7.0743,-7.0738,-7.0739,-7.0753,-7.0751,-7.0743,-7.0749,-7.0594,-7.0735,-7.0734,-7.0733,-7.0732,-7.0732,-7.0158,-7.0203,-7.0251,-7.0311,-7.0347,-7.0389,-7.0434,-7.0461,-7.0514,-7.0577,-7.0583,-7.065,-7.0694,-7.0769,-7.0797,-7.0849,-7.0834,-7.0855,-7.086,-7.0865,-7.0869,-7.0736,-7.0859,-7.0859,-7.0859,-7.0859,-7.0859,0,-7.027,-7.0301,-7.0356,-7.042,-7.0467,-7.0461,-7.051,-7.0549,-7.0609,-7.0651,-7.07,-7.0772,-7.083,-7.0863,-7.092,-7.0956,-7.0955,-7.097,-7.0967,-7.0973,-7.0879,-7.0861,-7.097,-7.097,-7.097,-7.097,-7.097,-7.097,-7.0334,-7.0412,-7.0428,-7.0524,-7.0554,-7.0621,-7.065,-7.0689,-7.0723,-7.0804,-7.0853,-7.0875,-7.0914,-7.0975,-7.1027,-7.1035,-7.1056,-7.1074,-7.108,-7.0991,-7.098,-7.0969,-7.0952,-7.1078,-7.1078,-7.117,-7.1171,-7.1172]}]]